Weather History for Portland Troutdale, OR

Change the Weather History Date:

Friday, June 7, 2013

  Actual Average Record
Temperature  
Mean Temperature 65 °F 61 °F  
Max Temperature 79 °F 72 °F 97 °F (2003)
Min Temperature 51 °F 50 °F 43 °F (1999)
Degree Days  
Heating Degree Days 0 5  
Month to date heating degree days 4 36  
Cooling Degree Days 0 1  
Month to date cooling degree days 12 7  
Growing Degree Days 16 (Base 50)    
Moisture  
Dew Point 46 °F    
Average Humidity 50    
Maximum Humidity 77    
Minimum Humidity 23    
Precipitation  
Precipitation 0.00 in 0.11 in 1.05 in (1985)
Month to date precipitation T 0.77  
Year to date precipitation 14.83 23.47  
Snow  
Snow 0.00 in - - ()
Month to date snowfall 0.0  
Since 1 June snowfall 0.0  
Snow Depth 0.00 in    
Sea Level Pressure  
Sea Level Pressure 30.09 in    
Wind  
Wind Speed 3 mph (North)    
Max Wind Speed 13 mph    
Max Gust Speed 21 mph    
Visibility 10 miles    
Events      
T = Trace of Precipitation, MM = Missing Value Source: NWS Daily Summary

Daily Weather History Graph

Daily Weather History Graph

Search for Another Location

Airport:

Trip Planner

Search our weather history database for the weather conditions in past years. The results will help you decide how hot, cold, wet, or windy it might be!

Date:

Astronomy

Jun. 07, 2013 Rise Set
Actual Time 5:21 AM PDT 8:56 PM PDT
Civil Twilight 4:43 AM PDT 9:33 PM PDT
Nautical Twilight 3:54 AM PDT 10:23 PM PDT
Astronomical Twilight 2:48 AM PDT 11:29 PM PDT
Moon 4:51 AM PDT (6/7) 8:11 PM PDT (6/7)
Length of Visible Light 16h 49m
Length of Day
15h 34m
Waning Crescent, 1% of the Moon is Illuminated
Jun 7
Waning Crescent
Jun 8
New
Jun 16
First Quarter
Jun 23
Full
Jun 29
Last Quarter

Hourly Weather History & Observations

Time (PDT) Temp. Dew Point Humidity Pressure Visibility Wind Dir Wind Speed Gust Speed Precip Events Conditions
12:53 AM 60.1 °F 44.1 °F 55% 30.05 in 10.0 mi Calm Calm - N/A   Clear
1:53 AM 57.9 °F 45.0 °F 62% 30.06 in 10.0 mi Calm Calm - N/A   Clear
2:53 AM 57.0 °F 45.0 °F 64% 30.07 in 10.0 mi Calm Calm - N/A   Clear
3:53 AM 54.0 °F 46.9 °F 77% 30.09 in 10.0 mi Calm Calm - N/A   Clear
4:53 AM 53.1 °F 46.9 °F 80% 30.10 in 10.0 mi Calm Calm - N/A   Clear
5:53 AM 53.1 °F 46.9 °F 80% 30.11 in 10.0 mi Calm Calm - N/A   Clear
6:53 AM 55.9 °F 48.9 °F 77% 30.12 in 10.0 mi Calm Calm - N/A   Clear
7:53 AM 61.0 °F 45.0 °F 56% 30.12 in 10.0 mi NE 3.5 mph - N/A   Clear
8:53 AM 64.0 °F 39.0 °F 40% 30.12 in 10.0 mi Calm Calm - N/A   Partly Cloudy
9:53 AM 66.9 °F 36.0 °F 32% 30.11 in 10.0 mi Calm Calm - N/A   Scattered Clouds
10:53 AM 69.1 °F 36.0 °F 30% 30.10 in 10.0 mi Calm Calm - N/A   Overcast
11:53 AM 73.0 °F 33.1 °F 23% 30.10 in 10.0 mi Variable 3.5 mph - N/A   Overcast
12:53 PM 75.0 °F 39.0 °F 27% 30.09 in 10.0 mi Variable 4.6 mph - N/A   Overcast
1:53 PM 75.9 °F 43.0 °F 31% 30.09 in 10.0 mi Calm Calm - N/A   Overcast
2:53 PM 79.0 °F 43.0 °F 28% 30.08 in 10.0 mi Variable 5.8 mph - N/A   Overcast
3:53 PM 78.1 °F 46.0 °F 32% 30.07 in 10.0 mi Variable 5.8 mph - N/A   Overcast
4:53 PM 75.9 °F 48.9 °F 38% 30.07 in 10.0 mi North 4.6 mph - N/A   Overcast
5:53 PM 75.9 °F 54.0 °F 46% 30.06 in 10.0 mi Variable 6.9 mph - N/A   Clear
6:53 PM 73.9 °F 55.0 °F 52% 30.06 in 10.0 mi Variable 6.9 mph - N/A   Clear
7:53 PM 70.0 °F 53.1 °F 55% 30.08 in 10.0 mi Variable 6.9 mph - N/A   Clear
8:53 PM 66.0 °F 52.0 °F 60% 30.10 in 10.0 mi NW 6.9 mph - N/A   Clear
9:53 PM 62.1 °F 51.1 °F 67% 30.12 in 10.0 mi Variable 3.5 mph - N/A   Clear
10:53 PM 60.1 °F 51.1 °F 72% 30.14 in 10.0 mi Calm Calm - N/A   Clear
11:53 PM 59.0 °F 50.0 °F 72% 30.15 in 10.0 mi Variable 4.6 mph - N/A   Clear